{"data":{"norad_id":57224,"intl_designator":"2023-094G","name":"STARLINK-5983","alt_names":[],"object_type":"PAYLOAD","status":"ACTIVE","operator":null,"country":"US","launch_date":"2023-07-07","launch_site_code":"AFWTR","launch_vehicle":null,"mission":null,"orbit_class":"UNKNOWN","rcs_meters":null,"size_class":null,"mass_kg":null,"dimensions":null,"purposes":["comms"],"wikipedia_slug":null,"has_3d_model":false,"image_url":null,"decayed_at":null,"tle_current":{"epoch":"2026-09-20T18:30:51.813792Z","epoch_age_seconds":97549,"freshness":"FRESH","line1":"1 57224U 23094G   26263.77143303 -.00000161  00000+0  36852-5 0  9992","line2":"2 57224  43.0042   8.7506 0001603 276.0491  84.0178 15.27573921176958","mean_motion":15.27573921,"eccentricity":0.0001603,"inclination_deg":43.0042,"raan_deg":8.7506,"arg_perigee_deg":276.0491,"mean_anomaly_deg":84.0178,"bstar":3.6852e-6,"rev_number":17695,"period_min":94.267123849387,"perigee_km":481.96744776383,"apogee_km":484.16714986203,"semimajor_km":6861.2042988129,"source":"CELESTRAK","updated_at":"2026-09-21T09:00:33.584859Z"}}}